| time (UTC) | temp F | wind direction | speed knots | gust knots | rain 1hr in | rain 24hr in | rain mn in | humidity % | barometer mb |
| 20260504150903 | 66 | 64 | 1.7 | 7.0 | 0.00 | 0.00 | 0.00 | 40 | 1017.9 |
| 20260504140903 | 60 | 173 | 0.0 | 5.2 | 0.00 | 0.00 | 0.00 | 49 | 1017.9 |
| 20260504050003 | 67 | 73 | 0.0 | 7.0 | 0.00 | 0.00 | 0.00 | 20 | 1017.9 |
| 20260504045403 | 68 | 238 | 1.7 | 7.8 | 0.00 | 0.00 | 0.00 | 20 | 1017.9 |
| 20260504044504 | 68 | 245 | 1.7 | 7.8 | 0.00 | 0.00 | 0.00 | 18 | 1017.9 |
| 20260504043624 | 68 | 242 | 2.6 | 8.7 | 0.00 | 0.00 | 0.00 | 18 | 1017.9 |
| 20260504042703 | 68 | 234 | 1.7 | 7.0 | 0.00 | 0.00 | 0.00 | 18 | 1017.9 |
| 20260504041803 | 67 | 228 | 0.0 | 3.5 | 0.00 | 0.00 | 0.00 | 18 | 1017.9 |
| 20260504040903 | 68 | 233 | 0.9 | 6.1 | 0.00 | 0.00 | 0.00 | 18 | 1017.9 |
| 20260504040003 | 68 | 253 | 2.6 | 11.3 | 0.00 | 0.00 | 0.00 | 18 | 1017.9 |
| 20260504035403 | 68 | 252 | 2.6 | 11.3 | 0.00 | 0.00 | 0.00 | 18 | 1017.9 |
| 20260504034524 | 68 | 227 | 2.6 | 8.7 | 0.00 | 0.00 | 0.00 | 17 | 1017.9 |
| 20260504033624 | 69 | 219 | 2.6 | 7.8 | 0.00 | 0.00 | 0.00 | 17 | 1017.9 |
| 20260504032703 | 69 | 208 | 3.5 | 9.6 | 0.00 | 0.00 | 0.00 | 17 | 1017.9 |
| 20260504031803 | 69 | 200 | 3.5 | 9.6 | 0.00 | 0.00 | 0.00 | 17 | 1017.9 |
| 20260504030903 | 69 | 201 | 3.5 | 9.6 | 0.00 | 0.00 | 0.00 | 17 | 1017.9 |
| 20260504030003 | 68 | 247 | 0.0 | 4.3 | 0.00 | 0.00 | 0.00 | 16 | 1017.9 |
| 20260504025424 | 68 | 223 | 0.9 | 4.3 | 0.00 | 0.00 | 0.00 | 16 | 1017.9 |
| 20260504024503 | 68 | 80 | 0.0 | 2.6 | 0.00 | 0.00 | 0.00 | 16 | 1017.9 |
| 20260504023603 | 68 | 66 | 0.9 | 3.5 | 0.00 | 0.00 | 0.00 | 15 | 1017.9 |
| 20260504022703 | 68 | 49 | 0.0 | 3.5 | 0.00 | 0.00 | 0.00 | 15 | 1017.9 |
| 20260504021803 | 69 | 0 | 0.0 | 0.0 | 0.00 | 0.00 | 0.00 | 15 | 1017.9 |
| 20260504020903 | 70 | 0 | 0.0 | 0.0 | 0.00 | 0.00 | 0.00 | 16 | 1017.9 |
| 20260504020003 | 72 | 0 | 0.0 | 0.0 | 0.00 | 0.00 | 0.00 | 13 | 1017.9 |
| 20260504015424 | 73 | 0 | 0.0 | 0.0 | 0.00 | 0.00 | 0.00 | 13 | 1017.9 |
| 20260504014503 | 73 | 28 | 0.0 | 2.6 | 0.00 | 0.00 | 0.00 | 12 | 1017.9 |
| 20260504013624 | 74 | 17 | 0.0 | 3.5 | 0.00 | 0.00 | 0.00 | 12 | 1017.9 |
| 20260504012703 | 75 | 9 | 0.0 | 3.5 | 0.00 | 0.00 | 0.00 | 12 | 1017.9 |
| 20260504011803 | 75 | 310 | 0.0 | 6.1 | 0.00 | 0.00 | 0.00 | 11 | 1017.9 |
| 20260504010903 | 76 | 0 | 0.0 | 0.0 | 0.00 | 0.00 | 0.00 | 11 | 1017.9 |
| 20260504010024 | 76 | 296 | 0.0 | 7.0 | 0.00 | 0.00 | 0.00 | 11 | 1017.9 |
| 20260504005403 | 76 | 311 | 0.9 | 4.3 | 0.00 | 0.00 | 0.00 | 11 | 1017.9 |
| 20260504004524 | 76 | 22 | 0.9 | 6.1 | 0.00 | 0.00 | 0.00 | 10 | 1017.9 |
| 20260504003603 | 77 | 30 | 1.7 | 10.4 | 0.00 | 0.00 | 0.00 | 11 | 1017.9 |
| 20260504002703 | 78 | 194 | 1.7 | 6.1 | 0.00 | 0.00 | 0.00 | 10 | 1017.9 |
| 20260504001803 | 78 | 193 | 1.7 | 7.8 | 0.00 | 0.00 | 0.00 | 10 | 1017.9 |
| 20260504000903 | 78 | 193 | 1.7 | 7.8 | 0.00 | 0.00 | 0.00 | 9 | 1017.9 |
| 20260504000003 | 79 | 288 | 0.9 | 11.3 | 0.00 | 0.00 | 0.00 | 8 | 1017.9 |
| 20260503235424 | 80 | 309 | 1.7 | 11.3 | 0.00 | 0.00 | 0.00 | 9 | 1017.9 |
| 20260503234503 | 80 | 295 | 0.9 | 8.7 | 0.00 | 0.00 | 0.00 | 9 | 1017.9 |
| 20260503233603 | 80 | 247 | 0.9 | 8.7 | 0.00 | 0.00 | 0.00 | 9 | 1017.9 |
| 20260503232703 | 80 | 332 | 0.9 | 9.6 | 0.00 | 0.00 | 0.00 | 9 | 1017.9 |
| 20260503231824 | 79 | 343 | 0.9 | 6.1 | 0.00 | 0.00 | 0.00 | 9 | 1017.9 |
| 20260503230903 | 77 | 355 | 0.9 | 8.7 | 0.00 | 0.00 | 0.00 | 10 | 1017.9 |
| 20260503230003 | 77 | 306 | 0.0 | 7.0 | 0.00 | 0.00 | 0.00 | 10 | 1017.9 |
| 20260503225403 | 77 | 232 | 0.9 | 9.6 | 0.00 | 0.00 | 0.00 | 9 | 1017.9 |
| 20260503224524 | 78 | 241 | 0.9 | 9.6 | 0.00 | 0.00 | 0.00 | 9 | 1017.9 |
| 20260503223603 | 78 | 199 | 0.9 | 10.4 | 0.00 | 0.00 | 0.00 | 9 | 1017.9 |
| 20260503222703 | 79 | 27 | 0.0 | 4.3 | 0.00 | 0.00 | 0.00 | 9 | 1017.9 |
| 20260503221824 | 80 | 234 | 1.7 | 8.7 | 0.00 | 0.00 | 0.00 | 9 | 1017.9 |
| 20260503220903 | 81 | 285 | 0.9 | 5.2 | 0.00 | 0.00 | 0.00 | 8 | 1017.9 |
| 20260503220003 | 81 | 302 | 2.6 | 15.6 | 0.00 | 0.00 | 0.00 | 8 | 1017.9 |
| 20260503215403 | 81 | 306 | 0.9 | 10.4 | 0.00 | 0.00 | 0.00 | 8 | 1017.9 |
| 20260503214503 | 81 | 344 | 0.9 | 7.8 | 0.00 | 0.00 | 0.00 | 8 | 1017.9 |
| 20260503213603 | 80 | 345 | 1.7 | 8.7 | 0.00 | 0.00 | 0.00 | 8 | 1017.9 |
| 20260503212703 | 80 | 267 | 1.7 | 9.6 | 0.00 | 0.00 | 0.00 | 8 | 1017.9 |
| 20260503211824 | 80 | 286 | 3.5 | 13.9 | 0.00 | 0.00 | 0.00 | 8 | 1017.9 |
| 20260503210903 | 79 | 215 | 2.6 | 10.4 | 0.00 | 0.00 | 0.00 | 9 | 1017.9 |
| 20260503210003 | 79 | 276 | 3.5 | 10.4 | 0.00 | 0.00 | 0.00 | 8 | 1017.9 |
| 20260503205403 | 79 | 275 | 2.6 | 16.5 | 0.00 | 0.00 | 0.00 | 9 | 1017.9 |
| 20260503204524 | 78 | 59 | 1.7 | 6.1 | 0.00 | 0.00 | 0.00 | 9 | 1017.9 |
| 20260503203624 | 77 | 82 | 4.3 | 9.6 | 0.00 | 0.00 | 0.00 | 11 | 1017.9 |
| 20260503202703 | 75 | 182 | 2.6 | 9.6 | 0.00 | 0.00 | 0.00 | 16 | 1017.9 |
| 20260503201803 | 75 | 74 | 0.9 | 6.1 | 0.00 | 0.00 | 0.00 | 16 | 1017.9 |
| 20260503200903 | 74 | 69 | 1.7 | 7.8 | 0.00 | 0.00 | 0.00 | 17 | 1017.9 |
| 20260503200003 | 73 | 59 | 0.9 | 4.3 | 0.00 | 0.00 | 0.00 | 18 | 1017.9 |
| 20260503195403 | 73 | 59 | 1.7 | 5.2 | 0.00 | 0.00 | 0.00 | 18 | 1017.9 |
| 20260503194503 | 72 | 66 | 2.6 | 8.7 | 0.00 | 0.00 | 0.00 | 19 | 1017.9 |
| 20260503193603 | 72 | 77 | 0.9 | 6.1 | 0.00 | 0.00 | 0.00 | 19 | 1017.9 |
| 20260503192703 | 73 | 80 | 2.6 | 7.8 | 0.00 | 0.00 | 0.00 | 18 | 1017.9 |
| 20260503191803 | 74 | 62 | 2.6 | 8.7 | 0.00 | 0.00 | 0.00 | 18 | 1017.9 |
| 20260503190903 | 75 | 56 | 2.6 | 9.6 | 0.00 | 0.00 | 0.00 | 17 | 1017.9 |
| 20260503190003 | 76 | 21 | 2.6 | 7.0 | 0.00 | 0.00 | 0.00 | 16 | 1017.9 |
| 20260503185403 | 76 | 13 | 3.5 | 8.7 | 0.00 | 0.00 | 0.00 | 16 | 1017.9 |
| 20260503184524 | 76 | 6 | 3.5 | 8.7 | 0.00 | 0.00 | 0.00 | 17 | 1017.9 |
| 20260503183624 | 75 | 8 | 3.5 | 8.7 | 0.00 | 0.00 | 0.00 | 16 | 1017.9 |
| 20260503182703 | 74 | 1 | 2.6 | 7.8 | 0.00 | 0.00 | 0.00 | 16 | 1017.9 |
| 20260503181803 | 73 | 44 | 3.5 | 7.8 | 0.00 | 0.00 | 0.00 | 17 | 1017.9 |
| 20260503180903 | 73 | 33 | 3.5 | 9.6 | 0.00 | 0.00 | 0.00 | 17 | 1017.9 |
| 20260503180003 | 73 | 52 | 3.5 | 7.0 | 0.00 | 0.00 | 0.00 | 17 | 1017.9 |
| 20260503175403 | 73 | 19 | 1.7 | 5.2 | 0.00 | 0.00 | 0.00 | 17 | 1017.9 |
| 20260503174524 | 73 | 3 | 2.6 | 7.8 | 0.00 | 0.00 | 0.00 | 18 | 1017.9 |
| 20260503173624 | 72 | 11 | 2.6 | 7.8 | 0.00 | 0.00 | 0.00 | 19 | 1017.9 |
| 20260503172703 | 72 | 53 | 3.5 | 7.8 | 0.00 | 0.00 | 0.00 | 20 | 1017.9 |
| 20260503171824 | 71 | 64 | 1.7 | 5.2 | 0.00 | 0.00 | 0.00 | 21 | 1017.9 |
| 20260503170903 | 71 | 70 | 2.6 | 7.0 | 0.00 | 0.00 | 0.00 | 21 | 1017.9 |